EW7770 Weather Reports


Display with metric or nautical units.
time (UTC)temp
F
wind
direction
speed
MPH
gust
MPH
rain 1hr
in
rain 24hr
in
rain mn
in
humidity
%
barometer
mb
20210417152346 37 51 3.0 10.0 0.12 0.76 0.14 93 1004.4
20210417152144 37 75 3.0 5.0 0.12 0.76 0.14 93 1004.3
20210417152050 37 60 3.0 7.0 0.12 0.76 0.13 93 1004.4
20210417150928 36 87 1.0 3.0 0.10 0.74 0.11 93 1004.4
20210417145933 36 78 3.0 5.0 0.07 0.71 0.09 93 1004.2
20210417145049 35 60 4.0 13.0 0.05 0.69 0.07 93 1004.3
20210417143916 35 91 2.0 4.0 0.03 0.67 0.05 93 1004.3
20210417142932 35 101 3.0 4.0 0.01 0.65 0.03 93 1004.3
20210417142106 35 76 2.0 7.0 0.00 0.64 0.02 93 1004.2
20210417141041 34 83 4.0 6.0 0.00 0.64 0.02 92 1004.2
20210417140045 34 67 2.0 4.0 0.00 0.64 0.02 93 1004.1
20210417140030 34 70 1.0 4.0 0.00 0.64 0.02 93 1004.2
20210417135249 34 72 3.0 6.0 0.00 0.64 0.02 93 1004.1
20210417134026 33 67 2.0 3.0 0.00 0.64 0.02 93 1004.0
20210417133033 33 108 1.0 4.0 0.00 0.64 0.02 93 1004.0
20210417132220 33 68 4.0 12.0 0.00 0.64 0.02 92 1003.9
20210417131024 33 57 2.0 5.0 0.00 0.64 0.02 93 1003.8
20210417130917 33 53 3.0 5.0 0.00 0.64 0.02 93 1003.8
20210417130036 33 67 3.0 9.0 0.00 0.64 0.02 92 1003.8
20210417125157 33 76 1.0 4.0 0.00 0.64 0.02 93 1003.9
20210417124021 33 84 2.0 5.0 0.00 0.64 0.02 93 1003.8
20210417123027 33 57 2.0 3.0 0.00 0.64 0.02 92 1003.7
20210417122446 33 90 2.0 4.0 0.00 0.64 0.02 93 1003.7
20210417121027 33 106 1.0 6.0 0.00 0.64 0.02 93 1003.5
20210417120923 33 71 3.0 6.0 0.00 0.64 0.02 92 1003.5
20210417120829 33 112 1.0 2.0 0.00 0.64 0.02 92 1003.6
20210417115109 33 61 3.0 5.0 0.00 0.64 0.02 92 1003.7
20210417113913 32 90 1.0 2.0 0.00 0.64 0.02 92 1003.6
20210417113053 32 56 2.0 5.0 0.00 0.64 0.02 93 1003.7
20210417112344 32 60 3.0 7.0 0.00 0.64 0.02 93 1003.6
20210417111025 32 45 2.0 6.0 0.00 0.64 0.02 93 1003.5
20210417110036 32 75 5.0 8.0 0.00 0.64 0.02 92 1003.6
20210417105549 32 90 1.0 2.0 0.00 0.64 0.02 93 1003.7
20210417104211 32 67 0.0 3.0 0.00 0.64 0.02 93 1003.6
20210417103342 32 58 1.0 4.0 0.00 0.64 0.02 92 1003.6
20210417102545 32 32 2.0 6.0 0.00 0.64 0.02 93 1003.5
20210417101219 32 60 3.0 6.0 0.00 0.64 0.02 93 1003.5
20210417100315 32 65 2.0 4.0 0.00 0.64 0.02 93 1003.5
20210417095514 32 90 1.0 3.0 0.00 0.64 0.02 93 1003.6
20210417094318 32 90 3.0 5.0 0.00 0.64 0.02 92 1003.5
20210417093318 32 93 1.0 2.0 0.00 0.64 0.02 93 1003.6
20210417092526 32 90 2.0 3.0 0.00 0.64 0.02 92 1003.7
20210417091333 32 112 0.0 3.0 0.00 0.64 0.02 92 1003.7
20210417090313 32 90 2.0 4.0 0.00 0.64 0.02 93 1003.7
20210417085832 32 86 3.0 5.0 0.00 0.64 0.02 93 1003.6
20210417084311 32 30 3.0 8.0 0.00 0.64 0.02 93 1003.6
20210417083312 32 81 2.0 4.0 0.00 0.64 0.02 93 1003.6
20210417082532 32 97 3.0 5.0 0.00 0.64 0.02 92 1003.8
20210417081312 32 87 2.0 9.0 0.00 0.64 0.02 93 1003.8
20210417080310 32 85 2.0 7.0 0.00 0.64 0.02 93 1003.7
20210417080215 32 94 1.0 4.0 0.00 0.64 0.02 93 1003.9
20210417075436 32 94 1.0 3.0 0.00 0.64 0.02 93 1003.9
20210417074311 32 66 2.0 5.0 0.00 0.64 0.02 93 1004.0
20210417073315 32 90 1.0 3.0 0.00 0.64 0.02 93 1004.0
20210417072438 32 65 2.0 4.0 0.00 0.64 0.02 92 1004.1
20210417071309 32 84 2.0 7.0 0.00 0.64 0.02 93 1004.3
20210417070318 32 91 2.0 4.0 0.00 0.64 0.02 93 1004.2
20210417065746 32 83 3.0 8.0 0.00 0.64 0.02 92 1004.3
20210417065636 32 79 3.0 4.0 0.00 0.64 0.02 93 1004.3
20210417064224 32 69 3.0 9.0 0.00 0.64 0.02 92 1004.4
20210417063256 32 99 3.0 5.0 0.00 0.64 0.02 93 1004.5
20210417062626 32 65 3.0 5.0 0.00 0.64 0.02 93 1004.5
20210417061309 32 76 3.0 6.0 0.00 0.64 0.02 92 1004.5
20210417060314 32 76 3.0 5.0 0.00 0.64 0.02 93 1004.7
20210417060255 32 107 3.0 5.0 0.00 0.64 0.02 92 1004.7
20210417055454 32 81 5.0 11.0 0.00 0.64 0.02 92 1004.7
20210417054218 32 87 4.0 11.0 0.00 0.64 0.02 93 1004.9
20210417053323 32 95 4.0 6.0 0.00 0.64 0.02 92 1004.9
20210417052830 32 76 5.0 8.0 0.01 0.64 0.02 93 1004.9
20210417052719 32 84 4.0 8.0 0.01 0.64 0.02 93 1005.0
20210417051315 32 76 5.0 11.0 0.01 0.64 0.02 92 1005.0
20210417050316 32 77 3.0 6.0 0.02 0.64 0.02 93 1005.1
20210417045755 33 95 3.0 4.0 0.03 0.64 0.02 93 1005.3
20210417044312 33 64 4.0 8.0 0.03 0.64 0.02 93 1005.2
20210417044221 33 56 3.0 7.0 0.03 0.64 0.02 93 1005.3
20210417043217 33 95 4.0 9.0 0.04 0.64 0.01 93 1005.4
20210417042430 34 99 5.0 9.0 0.03 0.63 0.01 93 1005.3
20210417041315 34 65 5.0 7.0 0.04 0.63 0.01 93 1005.4
20210417040312 33 121 3.0 5.0 0.04 0.62 0.00 92 1005.3
20210417035428 33 83 4.0 11.0 0.03 0.61 0.61 93 1005.4
20210417034316 33 81 4.0 8.0 0.04 0.61 0.61 93 1005.3
20210417033315 33 85 5.0 13.0 0.03 0.60 0.60 92 1005.2
20210417033226 33 102 3.0 7.0 0.03 0.60 0.60 93 1005.1
20210417032334 33 108 3.0 6.0 0.04 0.60 0.59 93 1005.5
20210417031216 33 74 4.0 7.0 0.04 0.59 0.59 93 1005.5
20210417030225 33 103 3.0 4.0 0.04 0.57 0.57 91 1005.4
20210417025552 33 100 2.0 4.0 0.05 0.57 0.57 92 1005.4
20210417024322 33 104 3.0 5.0 0.06 0.57 0.57 92 1005.4
20210417023322 33 98 5.0 7.0 0.07 0.57 0.57 92 1005.4
20210417022628 34 123 4.0 13.0 0.07 0.56 0.56 92 1005.5
20210417021317 34 101 4.0 7.0 0.07 0.55 0.55 92 1005.4
20210417020315 34 104 7.0 14.0 0.07 0.54 0.54 92 1005.8
20210417015638 35 108 3.0 7.0 0.07 0.53 0.53 92 1005.5
20210417014414 35 102 4.0 8.0 0.06 0.52 0.51 92 1005.6
20210417013422 35 107 5.0 14.0 0.05 0.50 0.50 92 1005.6
20210417012853 35 99 5.0 10.0 0.05 0.49 0.49 92 1005.7
20210417011424 35 97 4.0 8.0 0.04 0.48 0.48 92 1005.6
20210417010520 35 90 6.0 12.0 0.04 0.47 0.47 92 1005.6
20210417005858 35 101 5.0 13.0 0.05 0.47 0.46 91 1005.5
20210417004527 35 83 5.0 11.0 0.06 0.46 0.46 92 1005.6
20210417003524 35 91 5.0 11.0 0.06 0.45 0.45 92 1005.3
20210417002824 35 116 4.0 7.0 0.06 0.44 0.44 92 1005.1
20210417001527 34 91 4.0 8.0 0.07 0.44 0.44 91 1005.0
20210417000630 34 89 6.0 11.0 0.07 0.43 0.43 91 1005.3
20210417000620 34 111 5.0 13.0 0.07 0.43 0.43 92 1005.2
20210416235915 34 96 6.0 12.0 0.08 0.42 0.42 92 1005.0
20210416234520 34 78 6.0 9.0 0.08 0.40 0.40 92 1004.9
20210416233614 34 90 6.0 11.0 0.10 0.39 0.39 92 1004.8
20210416232901 34 93 5.0 13.0 0.11 0.38 0.38 91 1005.0
20210416231616 34 96 4.0 6.0 0.11 0.37 0.37 91 1004.9
20210416230620 34 98 5.0 12.0 0.12 0.36 0.36 92 1005.1
20210416230051 34 83 5.0 9.0 0.10 0.34 0.34 92 1004.9
20210416224922 34 92 6.0 14.0 0.10 0.32 0.32 92 1004.9
20210416223820 35 95 7.0 11.0 0.09 0.30 0.30 92 1004.7
20210416222950 35 108 3.0 10.0 0.08 0.27 0.27 92 1004.7
20210416222139 35 104 4.0 7.0 0.08 0.26 0.26 91 1004.7
20210416220921 35 95 5.0 14.0 0.09 0.25 0.25 92 1005.0
20210416220111 34 126 4.0 7.0 0.09 0.24 0.24 92 1004.8
20210416220034 34 98 4.0 6.0 0.09 0.24 0.24 92 1004.8
20210416215111 34 102 7.0 19.0 0.10 0.23 0.22 92 1004.8
20210416213915 34 82 7.0 11.0 0.09 0.21 0.21 91 1004.9
20210416212920 34 96 5.0 10.0 0.08 0.19 0.19 91 1004.8
20210416212839 34 85 4.0 8.0 0.08 0.19 0.19 91 1004.8
20210416211942 33 81 7.0 22.0 0.09 0.18 0.17 91 1004.7
20210416210914 33 84 6.0 11.0 0.09 0.16 0.16 91 1004.8
20210416205917 33 88 5.0 9.0 0.10 0.15 0.15 91 1004.9
20210416205105 33 97 8.0 12.0 0.10 0.14 0.13 89 1004.9
20210416204024 33 109 5.0 8.0 0.10 0.12 0.12 90 1005.1
20210416203134 34 103 5.0 8.0 0.10 0.11 0.11 89 1005.3
20210416202432 34 108 5.0 14.0 0.10 0.10 0.10 89 1005.4
20210416201116 34 112 4.0 7.0 0.08 0.08 0.08 89 1005.5
20210416200129 35 89 6.0 11.0 0.06 0.06 0.06 88 1005.5
20210416195709 35 87 5.0 10.0 0.04 0.04 0.04 87 1005.5
20210416194118 36 103 6.0 12.0 0.02 0.02 0.02 86 1005.5
20210416193348 36 121 3.0 6.0 0.01 0.01 0.01 84 1005.6
20210416192932 36 105 4.0 8.0 0.00 0.00 0.00 80 1005.5
20210416191116 37 114 7.0 22.0 0.00 0.00 0.00 75 1005.6
20210416190146 38 110 5.0 10.0 0.00 0.00 0.00 70 1005.6
20210416185225 38 105 6.0 15.0 0.00 0.00 0.00 68 1005.5
20210416184224 38 95 7.0 15.0 0.00 0.00 0.00 65 1005.6
20210416184114 38 114 5.0 11.0 0.00 0.00 0.00 65 1005.6
20210416183119 38 110 4.0 13.0 0.00 0.00 0.00 65 1005.8
20210416183031 38 136 5.0 13.0 0.00 0.00 0.00 65 1005.9
20210416182432 38 130 7.0 16.0 0.00 0.00 0.00 65 1005.7
20210416181033 38 113 6.0 10.0 0.00 0.00 0.00 64 1005.6
20210416180037 38 106 6.0 11.0 0.00 0.00 0.00 64 1005.4
20210416175118 38 123 6.0 14.0 0.00 0.00 0.00 65 1004.7
20210416174948 38 102 9.0 26.0 0.00 0.00 0.00 65 1005.2
20210416173917 38 108 5.0 11.0 0.00 0.00 0.00 63 1005.3
20210416173035 38 100 5.0 7.0 0.00 0.00 0.00 64 1005.3
20210416172340 38 115 5.0 9.0 0.00 0.00 0.00 63 1005.2
20210416171021 38 125 5.0 9.0 0.00 0.00 0.00 65 1005.2
20210416170129 38 127 6.0 13.0 0.00 0.00 0.00 65 1005.2
20210416165457 37 97 5.0 10.0 0.00 0.00 0.00 66 1005.2
20210416164117 37 87 7.0 12.0 0.00 0.00 0.00 66 1005.3
20210416163218 37 124 5.0 12.0 0.00 0.00 0.00 67 1004.9
20210416162439 37 92 7.0 17.0 0.00 0.00 0.00 65 1005.2
20210416161221 38 119 3.0 5.0 0.00 0.00 0.00 66 1005.3
20210416160225 38 120 6.0 13.0 0.00 0.00 0.00 67 1005.4
20210416155538 37 112 6.0 12.0 0.00 0.00 0.00 68 1005.7
20210416155422 37 101 6.0 10.0 0.00 0.00 0.00 68 1005.5
20210416154117 38 101 6.0 11.0 0.00 0.00 0.00 68 1005.7
20210416153121 38 106 4.0 9.0 0.00 0.00 0.00 65 1006.0
20210416152434 38 100 5.0 9.0 0.00 0.00 0.00 66 1006.1